Location: Beuvrequen
(50.8014°N, 1.6652°E)
Time: 04:01:58
(UTC+00:00)

MOS 1-B Rocket - Pass Details

Date: 16 October 2021
Orbit: 890 x 1605 km, 99.0° (Epoch: 05 December)

Event Time Altitude Azimuth Distance (km) Brightness Sun altitude
Rises 17:45:53 0° 17° (NNE) 4,293 7.1 -8.2°
Reaches altitude 10° 17:48:53 10° 22° (NNE) 3,213 6.4 -8.7°
Maximum altitude 17:55:53 50° 97° (E) 1,369 4.4 -9.8°
Drops below altitude 10° 18:01:53 10° 172° (S) 2,753 6.3 -10.7°
Sets 18:04:16 0° 178° (S) 3,633 7.0 -11.1°
